Flag for U.S.A. Weather past 2 weeks in Glendale, California, U.S.A.

Now
54 °F

Passing clouds.


Feels Like: 54 °F
Forecast: 50 / 70 °F
Wind: No wind

Location: Burbank-Glendale-Pasadena Airport

Current Time: Jan 30, 2015 at 11:45:58 PM

Latest Report: Jan 30, 2015 at 10:53 PM


Visibility: 10 mi

Pressure: 29.84 "Hg

Humidity: 93%

Dew point: 52 °F

Location of GlendaleLocation

Historic Weather in Glendale — Graph

°F

Glendale temperature yesterday

Maximum temperature yesterday: 72 °F (at 12:53 PM)
Minimum temperature yesterday: 58 °F (at 4:53 AM)
Average temperature yesterday: 64 °F

Past Weeks' High & Low Weather Summary

 TemperatureHumidityPressure
High81 °F (Jan 24, 2:53 PM)100% (Jan 20, 8:53 AM)30.24 "Hg (Jan 20, 8:53 AM)
Low44 °F (Jan 23, 6:53 AM)10% (Jan 22, 11:53 AM)29.80 "Hg (Jan 30, 1:53 PM)
Average61 °F47%30.06 "Hg
* Reported Jan 15 9:53 PM — Jan 30 9:53 PM, Glendale, Weather by CustomWeather, © 2014

Note: Actual official high and low records may vary slightly from our data, if they occured in-between our weather recording intervals... More about our weather records

Advertising

Glendale weather history for previous 24 hours

 ConditionsComfort  
Time TempWeatherWind HumidityBarometerVisibility
9:53 PM
Jan 30
54 °FClear.3 mph90%29.84 "Hg10 mi
8:53 PM55 °FClear.No wind93%29.83 "Hg10 mi
7:53 PM57 °FClear.No wind90%29.83 "Hg10 mi
6:53 PM58 °FClear.No wind87%29.82 "Hg10 mi
5:53 PM59 °FPassing clouds.No wind84%29.81 "Hg10 mi
4:53 PM60 °FBroken clouds.3 mph78%29.81 "Hg10 mi
3:53 PM59 °FBroken clouds.No wind78%29.81 "Hg10 mi
2:53 PM58 °FRain. Cloudy.10 mph78%29.82 "Hg8 mi
1:53 PM67 °FPartly sunny.6 mph53%29.80 "Hg10 mi
12:53 PM65 °FPassing clouds.6 mph56%29.82 "Hg10 mi
11:53 AM64 °FSunny.8 mph61%29.86 "Hg10 mi
10:53 AM63 °FPartly sunny.6 mph70%29.88 "Hg10 mi
9:53 AM62 °FOvercast.No wind67%29.89 "Hg10 mi
8:53 AM61 °FMore clouds than sun.No wind67%29.90 "Hg10 mi
7:53 AM59 °FLight rain. Overcast.No wind75%29.90 "Hg10 mi
6:53 AM60 °FLight rain. Mostly cloudy.No wind65%29.89 "Hg10 mi
5:53 AM61 °FOvercast.5 mph60%29.88 "Hg10 mi
4:53 AM61 °FLight rain. Mostly cloudy.3 mph60%29.89 "Hg10 mi
3:53 AM62 °FLight rain. Overcast.8 mph58%29.90 "Hg10 mi
2:53 AM63 °FLight rain. Overcast.10 mph52%29.92 "Hg10 mi
1:53 AM62 °FOvercast.8 mph52%29.94 "Hg10 mi
12:53 AM62 °FOvercast.7 mph52%29.96 "Hg10 mi
11:53 PM
Jan 29
62 °FLight rain. Overcast.7 mph54%29.98 "Hg10 mi
Weather by CustomWeather, © 2014

See weather overviewHow to use our weather pages